Weather History for Venice, LA

Change the Weather History Date:

Friday, August 16, 2013

  Actual Average (KAXO) Record (KAXO)
Temperature  
Mean Temperature 82 °F -  
Max Temperature 86 °F 84 °F 89 °F (1997)
Min Temperature 78 °F 81 °F 77 °F (2004)
Cooling Degree Days 17    
Growing Degree Days 32 (Base 50)    
Moisture  
Dew Point 76 °F    
Average Humidity 83    
Maximum Humidity 89    
Minimum Humidity 70    
Precipitation  
Precipitation 0.00 in - - ()
Sea Level Pressure  
Sea Level Pressure 29.94 in    
Wind  
Wind Speed 7 mph (SSW)    
Max Wind Speed 13 mph    
Max Gust Speed -    
Visibility 10 miles    
Events Rain , Thunderstorm    
Averages and records for this station are not official NWS values.
T = Trace of Precipitation, MM = Missing Value Source: NWS Daily Summary

Daily Weather History Graph

Daily Weather History Graph

Search for Another Location

Airport:

Trip Planner

Search our weather history database for the weather conditions in past years. The results will help you decide how hot, cold, wet, or windy it might be!

Date:

Astronomy

Aug. 16, 2013 Rise Set
Actual Time 6:26 AM CDT 7:36 PM CDT
Civil Twilight 6:01 AM CDT 8:01 PM CDT
Nautical Twilight 5:32 AM CDT 8:31 PM CDT
Astronomical Twilight 5:01 AM CDT 9:01 PM CDT
Moon 3:46 PM CDT (8/16) 1:38 AM CDT (8/16)
Length of Visible Light 13h 59m
Length of Day
13h 09m
Waxing Gibbous, 75% of the Moon is Illuminated
Aug 16
Waxing Gibbous
Aug 20
Full
Aug 28
Last Quarter
Sep 5
New
Sep 12
First Quarter

Hourly Weather History & Observations

Time (CDT) Temp. Heat Index Dew Point Humidity Pressure Visibility Wind Dir Wind Speed Gust Speed Precip Events Conditions
5:00 AM 78.8 °F - 75.2 °F 89% 29.92 in 10.0 mi South 9.2 mph - N/A   Mostly Cloudy
5:29 AM 78.8 °F - 75.2 °F 89% 29.92 in 10.0 mi South 10.4 mph - N/A Rain , Thunderstorm Light Thunderstorms and Rain
5:48 AM 78.8 °F - 75.2 °F 89% 29.92 in 10.0 mi SSW 6.9 mph - N/A Thunderstorm Thunderstorm
6:15 AM 78.8 °F - 75.2 °F 89% 29.92 in 10.0 mi West 3.5 mph - N/A   Mostly Cloudy
6:45 AM 78.8 °F - 75.2 °F 89% 29.93 in 10.0 mi SW 6.9 mph - N/A   Overcast
7:19 AM 78.8 °F - 75.2 °F 89% 29.95 in 10.0 mi SW 3.5 mph - N/A   Overcast
7:45 AM 78.8 °F - 75.2 °F 89% 29.96 in 10.0 mi SSW 3.5 mph - N/A   Overcast
8:23 AM 80.6 °F 87.1 °F 77.0 °F 89% 29.96 in 10.0 mi South 12.7 mph - N/A   Overcast
8:56 AM 80.6 °F 87.1 °F 77.0 °F 89% 29.95 in 10.0 mi South 11.5 mph - N/A   Mostly Cloudy
9:48 AM 80.6 °F 86.2 °F 75.2 °F 84% 29.97 in 10.0 mi SSW 11.5 mph - N/A   Scattered Clouds
10:15 AM 82.4 °F 89.5 °F 75.2 °F 79% 29.98 in 10.0 mi SW 11.5 mph - N/A   Partly Cloudy
10:49 AM 80.6 °F 86.2 °F 75.2 °F 84% 29.97 in 10.0 mi SSW 6.9 mph - N/A   Mostly Cloudy
11:36 AM 80.6 °F 86.2 °F 75.2 °F 84% 29.97 in 10.0 mi SSW 9.2 mph - N/A   Mostly Cloudy
11:59 AM 82.4 °F 89.5 °F 75.2 °F 79% 29.97 in 10.0 mi SSW 9.2 mph - N/A   Mostly Cloudy
12:46 PM 82.4 °F 90.9 °F 77.0 °F 84% 29.97 in 10.0 mi South 10.4 mph - N/A   Scattered Clouds
1:15 PM 82.4 °F 89.5 °F 75.2 °F 79% 29.95 in 10.0 mi SSW 3.5 mph - N/A   Scattered Clouds
1:38 PM 84.2 °F 94.1 °F 77.0 °F 79% 29.94 in 10.0 mi Variable 2.3 mph - N/A   Scattered Clouds
2:16 PM 84.2 °F 94.1 °F 77.0 °F 79% 29.93 in 10.0 mi WSW 3.5 mph - N/A   Clear
2:51 PM 84.2 °F 94.1 °F 77.0 °F 79% 29.93 in 10.0 mi SSW 6.9 mph - N/A   Mostly Cloudy
3:30 PM 84.2 °F 92.3 °F 75.2 °F 74% 29.92 in 10.0 mi South 6.9 mph - N/A   Overcast
4:12 PM 84.2 °F 92.3 °F 75.2 °F 74% 29.93 in 10.0 mi Variable 2.3 mph - N/A   Overcast
4:49 PM 86.0 °F 95.1 °F 75.2 °F 70% 29.93 in 10.0 mi Variable 1.2 mph - N/A   Mostly Cloudy
5:04 PM 84.2 °F 92.3 °F 75.2 °F 74% 29.93 in 10.0 mi Calm Calm - N/A   Scattered Clouds